Datum;Stunde;Lohauser Deich;Wetter;Temperatur;Gefuehlte Temperatur;Regen
01.01.2019;00:00:00;0;Stellenweiser Regenfall;8;6;0
01.01.2019;01:00:00;0;Stellenweiser Regenfall;8;6;0
01.01.2019;02:00:00;0;Stellenweiser Regenfall;8;5;0
01.01.2019;03:00:00;0;Stellenweiser Regenfall;8;5;0
01.01.2019;04:00:00;0;Stellenweiser Regenfall;8;5;0
01.01.2019;05:00:00;0;Nieselregen;7;5;0
01.01.2019;06:00:00;0;Nieselregen;7;4;0
01.01.2019;07:00:00;4;Nieselregen;7;4;0
01.01.2019;08:00:00;1;Bedeckt;7;4;0
01.01.2019;09:00:00;3;Bedeckt;7;4;0
01.01.2019;10:00:00;11;Bedeckt;8;4;0
01.01.2019;11:00:00;8;Nieselregen;8;5;0
01.01.2019;12:00:00;17;Nieselregen;8;5;0
01.01.2019;13:00:00;15;Nieselregen;8;5;0
01.01.2019;14:00:00;13;Bedeckt;8;5;0
01.01.2019;15:00:00;8;Bedeckt;8;5;0
01.01.2019;16:00:00;19;Bedeckt;8;4;0
01.01.2019;17:00:00;9;Leichter Regenschauer;7;4;0
01.01.2019;18:00:00;5;Leichter Regenschauer;7;3;0
01.01.2019;19:00:00;1;Leichter Regenschauer;7;3;0
01.01.2019;20:00:00;1;Bedeckt;6;2;0
01.01.2019;21:00:00;0;Bedeckt;6;2;0
01.01.2019;22:00:00;0;Bedeckt;6;1;0
01.01.2019;23:00:00;0;Stellenweiser Regenfall;5;1;0
02.01.2019;00:00:00;2;Stellenweiser Regenfall;5;1;0
02.01.2019;01:00:00;0;Stellenweiser Regenfall;5;1;0
02.01.2019;02:00:00;0;Bewölkt;5;1;0
02.01.2019;03:00:00;0;Bewölkt;5;1;0
02.01.2019;04:00:00;0;Bewölkt;5;1;0
02.01.2019;05:00:00;2;Stellenweiser Regenfall;5;1;0
02.01.2019;06:00:00;10;Stellenweiser Regenfall;5;1;0
02.01.2019;07:00:00;15;Stellenweiser Regenfall;5;1;0
02.01.2019;08:00:00;11;Leichter Regenschauer;5;1;0
02.01.2019;09:00:00;9;Leichter Regenschauer;5;2;0
02.01.2019;10:00:00;16;Leichter Regenschauer;6;2;0
02.01.2019;11:00:00;8;Stellenweiser Eisregen;6;2;0
02.01.2019;12:00:00;36;Stellenweiser Eisregen;6;3;0
02.01.2019;13:00:00;43;Stellenweiser Eisregen;6;3;0
02.01.2019;14:00:00;47;Leicht bewölkt;6;3;0
02.01.2019;15:00:00;45;Leicht bewölkt;6;3;0
02.01.2019;16:00:00;53;Leicht bewölkt;6;3;0
02.01.2019;17:00:00;20;Leicht bewölkt;5;2;0
02.01.2019;18:00:00;11;Leicht bewölkt;5;2;0
02.01.2019;19:00:00;3;Leicht bewölkt;4;2;0
02.01.2019;20:00:00;4;Leicht bewölkt;4;1;0
02.01.2019;21:00:00;1;Leicht bewölkt;4;1;0
02.01.2019;22:00:00;0;Leicht bewölkt;3;1;0
02.01.2019;23:00:00;0;Leicht bewölkt;3;0;0
03.01.2019;00:00:00;0;Leicht bewölkt;3;0;0
03.01.2019;01:00:00;0;Leicht bewölkt;3;0;0
03.01.2019;02:00:00;0;Bewölkt;3;1;0
03.01.2019;03:00:00;0;Bewölkt;3;1;0
03.01.2019;04:00:00;0;Bewölkt;4;1;0
03.01.2019;05:00:00;0;Leichte Eisregen;4;1;0
03.01.2019;06:00:00;4;Leichte Eisregen;4;2;0
03.01.2019;07:00:00;15;Leichte Eisregen;4;2;0
03.01.2019;08:00:00;12;Bedeckt;4;2;0
03.01.2019;09:00:00;7;Bedeckt;4;2;0
03.01.2019;10:00:00;15;Bedeckt;4;2;0
03.01.2019;11:00:00;9;Leichte Eisregen;5;2;0
03.01.2019;12:00:00;20;Leichte Eisregen;5;2;0
03.01.2019;13:00:00;14;Leichte Eisregen;5;2;0
03.01.2019;14:00:00;17;Stellenweiser Regenfall;5;3;0
03.01.2019;15:00:00;27;Stellenweiser Regenfall;5;3;0
03.01.2019;16:00:00;26;Stellenweiser Regenfall;5;3;0
03.01.2019;17:00:00;13;Stellenweiser Regenfall;5;2;0
03.01.2019;18:00:00;11;Stellenweiser Regenfall;4;2;0
03.01.2019;19:00:00;4;Stellenweiser Regenfall;4;2;0
03.01.2019;20:00:00;3;Leicht bewölkt;4;2;0
03.01.2019;21:00:00;3;Leicht bewölkt;3;1;0
03.01.2019;22:00:00;1;Leicht bewölkt;3;1;0
03.01.2019;23:00:00;1;Leicht bewölkt;3;1;0
04.01.2019;00:00:00;0;Leicht bewölkt;2;1;0
04.01.2019;01:00:00;0;Leicht bewölkt;2;1;0
04.01.2019;02:00:00;0;Leicht bewölkt;2;1;0
04.01.2019;03:00:00;0;Leicht bewölkt;2;1;0
04.01.2019;04:00:00;0;Leicht bewölkt;2;0;0
04.01.2019;05:00:00;1;Leicht bewölkt;2;0;0
04.01.2019;06:00:00;6;Leicht bewölkt;2;0;0
04.01.2019;07:00:00;10;Leicht bewölkt;2;0;0
04.01.2019;08:00:00;9;Bedeckt;2;0;0
04.01.2019;09:00:00;3;Bedeckt;2;0;0
04.01.2019;10:00:00;10;Bedeckt;3;0;0
04.01.2019;11:00:00;10;Bedeckt;3;1;0
04.01.2019;12:00:00;5;Bedeckt;4;1;0
04.01.2019;13:00:00;5;Bedeckt;4;1;0
04.01.2019;14:00:00;11;Bedeckt;4;1;0
04.01.2019;15:00:00;8;Bedeckt;4;1;0
04.01.2019;16:00:00;8;Bedeckt;4;1;0
04.01.2019;17:00:00;8;Stellenweiser Regenfall;3;1;0
04.01.2019;18:00:00;4;Stellenweiser Regenfall;2;1;0
04.01.2019;19:00:00;3;Stellenweiser Regenfall;1;1;0
04.01.2019;20:00:00;4;Nieselregen;1;0;0
04.01.2019;21:00:00;1;Nieselregen;0;0;0
04.01.2019;22:00:00;1;Nieselregen;1;0;0
04.01.2019;23:00:00;0;Nieselregen;2;1;0
05.01.2019;00:00:00;0;Nieselregen;3;1;0
05.01.2019;01:00:00;0;Nieselregen;4;1;0
05.01.2019;02:00:00;0;Stellenweiser Regenfall;4;1;0
05.01.2019;03:00:00;0;Stellenweiser Regenfall;5;2;1
05.01.2019;04:00:00;0;Stellenweiser Regenfall;5;2;1
05.01.2019;05:00:00;1;Mäßiger Regenfall;6;2;1
05.01.2019;06:00:00;0;Mäßiger Regenfall;6;2;1
05.01.2019;07:00:00;1;Mäßiger Regenfall;6;2;1
05.01.2019;08:00:00;0;Leichter Regenfall;6;3;0
05.01.2019;09:00:00;4;Leichter Regenfall;7;3;0
05.01.2019;10:00:00;6;Leichter Regenfall;7;3;0
05.01.2019;11:00:00;7;Nieselregen;7;3;0
05.01.2019;12:00:00;7;Nieselregen;7;3;0
05.01.2019;13:00:00;5;Nieselregen;7;3;0
05.01.2019;14:00:00;14;Nieselregen;7;4;0
05.01.2019;15:00:00;14;Nieselregen;7;4;0
05.01.2019;16:00:00;11;Nieselregen;7;4;0
05.01.2019;17:00:00;1;Nieselregen;7;4;0
05.01.2019;18:00:00;3;Nieselregen;7;4;0
05.01.2019;19:00:00;1;Nieselregen;7;4;0
05.01.2019;20:00:00;4;Nieselregen;7;3;0
05.01.2019;21:00:00;1;Nieselregen;7;3;0
05.01.2019;22:00:00;0;Nieselregen;7;3;0
05.01.2019;23:00:00;0;Nieselregen;6;3;0
06.01.2019;00:00:00;0;Nieselregen;6;3;0
06.01.2019;01:00:00;0;Nieselregen;6;3;0
06.01.2019;02:00:00;0;Nieselregen;6;3;0
06.01.2019;03:00:00;0;Nieselregen;6;2;0
06.01.2019;04:00:00;0;Nieselregen;6;2;0
06.01.2019;05:00:00;1;Stellenweiser Regenfall;6;2;0
06.01.2019;06:00:00;0;Stellenweiser Regenfall;6;2;0
06.01.2019;07:00:00;4;Stellenweiser Regenfall;5;2;0
06.01.2019;08:00:00;3;Nieselregen;5;2;0
06.01.2019;09:00:00;4;Nieselregen;5;2;0
06.01.2019;10:00:00;21;Nieselregen;5;2;0
06.01.2019;11:00:00;32;Stellenweiser Regenfall;6;3;0
06.01.2019;12:00:00;38;Stellenweiser Regenfall;6;3;0
06.01.2019;13:00:00;35;Stellenweiser Regenfall;6;3;0
06.01.2019;14:00:00;39;Nieselregen;6;3;0
06.01.2019;15:00:00;46;Nieselregen;6;4;0
06.01.2019;16:00:00;39;Nieselregen;6;4;0
06.01.2019;17:00:00;15;Bewölkt;6;3;0
06.01.2019;18:00:00;3;Bewölkt;5;3;0
06.01.2019;19:00:00;4;Bewölkt;5;3;0
06.01.2019;20:00:00;2;Stellenweiser Regenfall;4;3;0
06.01.2019;21:00:00;0;Stellenweiser Regenfall;4;3;0
06.01.2019;22:00:00;0;Stellenweiser Regenfall;4;3;0
06.01.2019;23:00:00;0;Leichter Eisregen;4;3;0
07.01.2019;00:00:00;0;Leichter Eisregen;4;3;0
07.01.2019;01:00:00;0;Leichter Eisregen;4;3;0
07.01.2019;02:00:00;0;Stellenweiser Regenfall;4;3;0
07.01.2019;03:00:00;0;Stellenweiser Regenfall;4;3;0
07.01.2019;04:00:00;0;Stellenweiser Regenfall;4;2;0
07.01.2019;05:00:00;1;Leicht bewölkt;3;2;0
07.01.2019;06:00:00;14;Leicht bewölkt;3;2;0
07.01.2019;07:00:00;25;Leicht bewölkt;3;1;0
07.01.2019;08:00:00;23;Leicht bewölkt;3;1;0
07.01.2019;09:00:00;16;Leicht bewölkt;3;1;0
07.01.2019;10:00:00;9;Leicht bewölkt;3;1;0
07.01.2019;11:00:00;12;Bewölkt;4;2;0
07.01.2019;12:00:00;17;Bewölkt;4;2;0
07.01.2019;13:00:00;10;Bewölkt;5;2;0
07.01.2019;14:00:00;5;Bedeckt;5;2;0
07.01.2019;15:00:00;5;Bedeckt;5;3;0
07.01.2019;16:00:00;14;Bedeckt;5;3;0
07.01.2019;17:00:00;13;Leichter Regenfall;5;3;0
07.01.2019;18:00:00;23;Leichter Regenfall;4;3;0
07.01.2019;19:00:00;8;Leichter Regenfall;3;3;0
07.01.2019;20:00:00;1;Leichter Regenfall;2;2;1
07.01.2019;21:00:00;3;Leichter Regenfall;1;1;1
07.01.2019;22:00:00;0;Leichter Regenfall;3;2;1
07.01.2019;23:00:00;0;Mäßiger Regenfall;4;3;1
08.01.2019;00:00:00;1;Mäßiger Regenfall;6;4;1
08.01.2019;01:00:00;0;Mäßiger Regenfall;6;4;1
08.01.2019;02:00:00;0;Leichter Regenfall;7;4;0
08.01.2019;03:00:00;0;Leichter Regenfall;8;4;0
08.01.2019;04:00:00;0;Leichter Regenfall;7;4;0
08.01.2019;05:00:00;2;Leichter Regenschauer;7;3;0
08.01.2019;06:00:00;8;Leichter Regenschauer;7;3;0
08.01.2019;07:00:00;27;Leichter Regenschauer;7;3;0
08.01.2019;08:00:00;6;Nieselregen;7;3;0
08.01.2019;09:00:00;10;Nieselregen;7;3;0
08.01.2019;10:00:00;7;Nieselregen;7;3;0
08.01.2019;11:00:00;2;Leichter Regenschauer;7;3;0
08.01.2019;12:00:00;2;Leichter Regenschauer;7;3;0
08.01.2019;13:00:00;7;Leichter Regenschauer;7;3;0
08.01.2019;14:00:00;2;Leichter Regenfall;7;3;0
08.01.2019;15:00:00;10;Leichter Regenfall;7;3;0
08.01.2019;16:00:00;7;Leichter Regenfall;7;3;0
08.01.2019;17:00:00;17;Leichter Regenschauer;7;2;0
08.01.2019;18:00:00;12;Leichter Regenschauer;7;2;0
08.01.2019;19:00:00;4;Leichter Regenschauer;6;2;0
08.01.2019;20:00:00;1;Bedeckt;6;2;0
08.01.2019;21:00:00;0;Bedeckt;6;1;0
08.01.2019;22:00:00;0;Bedeckt;6;1;0
08.01.2019;23:00:00;2;Leichter Regenschauer;5;1;0
09.01.2019;00:00:00;0;Leichter Regenschauer;5;1;0
09.01.2019;01:00:00;0;Leichter Regenschauer;5;1;0
09.01.2019;02:00:00;0;Nieselregen;5;0;0
09.01.2019;03:00:00;0;Nieselregen;5;0;0
09.01.2019;04:00:00;0;Nieselregen;5;0;0
09.01.2019;05:00:00;2;Stellenweiser Nieselregen;4;0;0
09.01.2019;06:00:00;10;Stellenweiser Nieselregen;4;0;0
09.01.2019;07:00:00;22;Stellenweiser Nieselregen;4;0;0
09.01.2019;08:00:00;27;Leicht bewölkt;4;0;0
09.01.2019;09:00:00;12;Leicht bewölkt;4;0;0
09.01.2019;10:00:00;13;Leicht bewölkt;4;0;0
09.01.2019;11:00:00;20;Leicht bewölkt;5;1;0
09.01.2019;12:00:00;26;Leicht bewölkt;5;1;0
09.01.2019;13:00:00;23;Leicht bewölkt;5;1;0
09.01.2019;14:00:00;22;Bewölkt;5;1;0
09.01.2019;15:00:00;33;Bewölkt;5;1;0
09.01.2019;16:00:00;20;Bewölkt;5;0;0
09.01.2019;17:00:00;30;Bedeckt;4;0;0
09.01.2019;18:00:00;10;Bedeckt;4;-1;0
09.01.2019;19:00:00;18;Bedeckt;3;-1;0
09.01.2019;20:00:00;12;Leicht bewölkt;3;-2;0
09.01.2019;21:00:00;1;Leicht bewölkt;2;-2;0
09.01.2019;22:00:00;1;Leicht bewölkt;2;-2;0
09.01.2019;23:00:00;0;Leicht bewölkt;2;-2;0
10.01.2019;00:00:00;0;Leicht bewölkt;2;-2;0
10.01.2019;01:00:00;0;Leicht bewölkt;1;-2;0
10.01.2019;02:00:00;0;Leicht bewölkt;1;-2;0
10.01.2019;03:00:00;0;Leicht bewölkt;1;-2;0
10.01.2019;04:00:00;0;Leicht bewölkt;1;-2;0
10.01.2019;05:00:00;3;Leicht bewölkt;1;-2;0
10.01.2019;06:00:00;12;Leicht bewölkt;1;-2;0
10.01.2019;07:00:00;25;Leicht bewölkt;1;-2;0
10.01.2019;08:00:00;13;Bedeckt;1;-2;0
10.01.2019;09:00:00;12;Bedeckt;1;-2;0
10.01.2019;10:00:00;11;Bedeckt;2;-1;0
10.01.2019;11:00:00;11;Bedeckt;2;-1;0
10.01.2019;12:00:00;9;Bedeckt;2;0;0
10.01.2019;13:00:00;15;Bedeckt;3;0;0
10.01.2019;14:00:00;21;Bewölkt;3;1;0
10.01.2019;15:00:00;18;Bewölkt;3;1;0
10.01.2019;16:00:00;25;Bewölkt;3;1;0
10.01.2019;17:00:00;18;Bewölkt;3;2;0
10.01.2019;18:00:00;16;Bewölkt;3;2;0
10.01.2019;19:00:00;9;Bewölkt;3;2;0
10.01.2019;20:00:00;3;Bedeckt;3;2;0
10.01.2019;21:00:00;2;Bedeckt;3;2;0
10.01.2019;22:00:00;6;Bedeckt;3;1;0
10.01.2019;23:00:00;0;Starker Schneefall;3;1;0
11.01.2019;00:00:00;2;Starker Schneefall;3;0;0
11.01.2019;01:00:00;0;Starker Schneefall;2;0;0
11.01.2019;02:00:00;0;Leichter Eisregen;2;-1;0
11.01.2019;03:00:00;0;Leichter Eisregen;2;-1;0
11.01.2019;04:00:00;0;Leichter Eisregen;2;-1;0
11.01.2019;05:00:00;0;Nieselregen;2;-1;0
11.01.2019;06:00:00;6;Nieselregen;2;-1;0
11.01.2019;07:00:00;11;Nieselregen;2;0;0
11.01.2019;08:00:00;10;Nieselregen;3;0;0
11.01.2019;09:00:00;7;Nieselregen;3;1;0
11.01.2019;10:00:00;2;Nieselregen;4;1;0
11.01.2019;11:00:00;9;Leichter Regenfall;4;2;0
11.01.2019;12:00:00;5;Leichter Regenfall;5;3;0
11.01.2019;13:00:00;9;Leichter Regenfall;5;3;0
11.01.2019;14:00:00;9;Nebel;6;3;0
11.01.2019;15:00:00;4;Nebel;6;3;0
11.01.2019;16:00:00;13;Nebel;5;3;0
11.01.2019;17:00:00;16;Nieselregen;4;3;0
11.01.2019;18:00:00;8;Nieselregen;3;3;0
11.01.2019;19:00:00;7;Nieselregen;2;1;0
11.01.2019;20:00:00;1;Bedeckt;1;0;0
11.01.2019;21:00:00;2;Bedeckt;-1;-1;0
11.01.2019;22:00:00;0;Bedeckt;1;0;0
11.01.2019;23:00:00;0;Leichter Regenschauer;2;1;0
12.01.2019;00:00:00;0;Leichter Regenschauer;4;2;0
12.01.2019;01:00:00;0;Leichter Regenschauer;4;2;0
12.01.2019;02:00:00;0;Stellenweiser Regenfall;5;3;0
12.01.2019;03:00:00;0;Stellenweiser Regenfall;6;3;0
12.01.2019;04:00:00;0;Stellenweiser Regenfall;6;3;0
12.01.2019;05:00:00;1;Stellenweiser Regenfall;6;3;0
12.01.2019;06:00:00;1;Stellenweiser Regenfall;6;3;0
12.01.2019;07:00:00;2;Stellenweiser Regenfall;6;2;0
12.01.2019;08:00:00;3;Stellenweiser Regenfall;6;2;0
12.01.2019;09:00:00;14;Stellenweiser Regenfall;6;2;0
12.01.2019;10:00:00;21;Stellenweiser Regenfall;6;2;0
12.01.2019;11:00:00;26;Leichter Regenschauer;6;2;0
12.01.2019;12:00:00;25;Leichter Regenschauer;6;2;0
12.01.2019;13:00:00;13;Leichter Regenschauer;6;3;0
12.01.2019;14:00:00;6;Nieselregen;7;3;0
12.01.2019;15:00:00;6;Nieselregen;7;3;0
12.01.2019;16:00:00;7;Nieselregen;7;4;0
12.01.2019;17:00:00;2;Leichter Regenfall;7;4;0
12.01.2019;18:00:00;1;Leichter Regenfall;7;4;0
12.01.2019;19:00:00;1;Leichter Regenfall;7;4;0
12.01.2019;20:00:00;0;Nieselregen;6;4;0
12.01.2019;21:00:00;0;Nieselregen;6;4;0
12.01.2019;22:00:00;0;Nieselregen;6;4;0
12.01.2019;23:00:00;0;Leichter Regenschauer;6;4;0
13.01.2019;00:00:00;0;Leichter Regenschauer;7;4;0
13.01.2019;01:00:00;0;Leichter Regenschauer;7;4;0
13.01.2019;02:00:00;0;Leichter Regenschauer;7;4;0
13.01.2019;03:00:00;0;Leichter Regenschauer;7;4;0
13.01.2019;04:00:00;0;Leichter Regenschauer;7;4;0
13.01.2019;05:00:00;1;Leichter Regenschauer;7;4;0
13.01.2019;06:00:00;0;Leichter Regenschauer;7;4;0
13.01.2019;07:00:00;1;Leichter Regenschauer;7;4;1
13.01.2019;08:00:00;0;Nieselregen;8;5;1
13.01.2019;09:00:00;2;Nieselregen;8;5;1
13.01.2019;10:00:00;6;Nieselregen;8;5;1
13.01.2019;11:00:00;6;Mäßiger Regenfall;8;5;1
13.01.2019;12:00:00;7;Mäßiger Regenfall;9;5;1
13.01.2019;13:00:00;6;Mäßiger Regenfall;9;5;1
13.01.2019;14:00:00;8;Leichter Regenfall;9;5;1
13.01.2019;15:00:00;4;Leichter Regenfall;9;6;1
13.01.2019;16:00:00;5;Leichter Regenfall;9;6;1
13.01.2019;17:00:00;5;Mäßiger Regenfall;9;6;1
13.01.2019;18:00:00;3;Mäßiger Regenfall;9;6;1
13.01.2019;19:00:00;0;Mäßiger Regenfall;9;5;0
13.01.2019;20:00:00;0;Leichter Regenfall;9;5;0
13.01.2019;21:00:00;0;Leichter Regenfall;8;5;0
13.01.2019;22:00:00;0;Leichter Regenfall;8;4;0
13.01.2019;23:00:00;0;Leichter Regenschauer;8;4;0
14.01.2019;00:00:00;0;Leichter Regenschauer;7;4;0
14.01.2019;01:00:00;0;Leichter Regenschauer;7;3;0
14.01.2019;02:00:00;0;Bedeckt;7;3;0
14.01.2019;03:00:00;0;Bedeckt;7;3;0
14.01.2019;04:00:00;1;Bedeckt;7;3;0
14.01.2019;05:00:00;0;Leichter Regenschauer;7;3;0
14.01.2019;06:00:00;10;Leichter Regenschauer;7;3;0
14.01.2019;07:00:00;21;Leichter Regenschauer;6;3;0
14.01.2019;08:00:00;16;Nieselregen;6;3;0
14.01.2019;09:00:00;8;Nieselregen;6;3;0
14.01.2019;10:00:00;0;Nieselregen;6;3;0
14.01.2019;11:00:00;14;Stellenweiser leichter Regenfall;6;3;0
14.01.2019;12:00:00;8;Stellenweiser leichter Regenfall;6;3;0
14.01.2019;13:00:00;15;Stellenweiser leichter Regenfall;6;2;0
14.01.2019;14:00:00;10;Nieselregen;6;2;0
14.01.2019;15:00:00;22;Nieselregen;6;2;0
14.01.2019;16:00:00;13;Nieselregen;5;2;0
14.01.2019;17:00:00;21;Leichte Eisregen;5;1;0
14.01.2019;18:00:00;17;Leichte Eisregen;5;1;0
14.01.2019;19:00:00;6;Leichte Eisregen;4;1;0
14.01.2019;20:00:00;1;Bedeckt;4;1;0
14.01.2019;21:00:00;2;Bedeckt;4;1;0
14.01.2019;22:00:00;1;Bedeckt;3;0;0
14.01.2019;23:00:00;2;Leicht bewölkt;3;0;0
15.01.2019;00:00:00;0;Leicht bewölkt;3;0;0
15.01.2019;01:00:00;0;Leicht bewölkt;3;0;0
15.01.2019;02:00:00;0;Leicht bewölkt;3;0;0
15.01.2019;03:00:00;0;Leicht bewölkt;2;-1;0
15.01.2019;04:00:00;0;Leicht bewölkt;3;-1;0
15.01.2019;05:00:00;2;Leicht bewölkt;3;-1;0
15.01.2019;06:00:00;7;Leicht bewölkt;3;-1;0
15.01.2019;07:00:00;24;Leicht bewölkt;3;-1;0
15.01.2019;08:00:00;19;Bedeckt;3;-1;0
15.01.2019;09:00:00;10;Bedeckt;4;0;0
15.01.2019;10:00:00;10;Bedeckt;4;0;0
15.01.2019;11:00:00;28;Stellenweiser Regenfall;5;1;0
15.01.2019;12:00:00;15;Stellenweiser Regenfall;5;1;0
15.01.2019;13:00:00;11;Stellenweiser Regenfall;6;2;0
15.01.2019;14:00:00;18;Stellenweiser Regenfall;6;2;0
15.01.2019;15:00:00;22;Stellenweiser Regenfall;6;3;0
15.01.2019;16:00:00;24;Stellenweiser Regenfall;6;3;0
15.01.2019;17:00:00;24;Stellenweiser Regenfall;5;3;0
15.01.2019;18:00:00;15;Stellenweiser Regenfall;5;3;0
15.01.2019;19:00:00;27;Stellenweiser Regenfall;3;3;0
15.01.2019;20:00:00;16;Nieselregen;2;2;0
15.01.2019;21:00:00;7;Nieselregen;1;1;0
15.01.2019;22:00:00;2;Nieselregen;2;1;0
15.01.2019;23:00:00;0;Nieselregen;3;2;0
16.01.2019;00:00:00;0;Nieselregen;4;2;0
16.01.2019;01:00:00;0;Nieselregen;5;3;0
16.01.2019;02:00:00;0;Nieselregen;6;3;0
16.01.2019;03:00:00;0;Nieselregen;7;3;0
16.01.2019;04:00:00;0;Nieselregen;6;3;0
16.01.2019;05:00:00;2;Stellenweiser Regenfall;6;3;0
16.01.2019;06:00:00;8;Stellenweiser Regenfall;6;3;0
16.01.2019;07:00:00;24;Stellenweiser Regenfall;6;2;0
16.01.2019;08:00:00;19;Stellenweiser Regenfall;6;2;0
16.01.2019;09:00:00;17;Stellenweiser Regenfall;6;2;0
16.01.2019;10:00:00;10;Stellenweiser Regenfall;6;2;0
16.01.2019;11:00:00;13;Bewölkt;6;3;0
16.01.2019;12:00:00;11;Bewölkt;6;3;0
16.01.2019;13:00:00;19;Bewölkt;6;3;0
16.01.2019;14:00:00;19;Bedeckt;7;3;0
16.01.2019;15:00:00;34;Bedeckt;7;4;0
16.01.2019;16:00:00;30;Bedeckt;7;4;0
16.01.2019;17:00:00;38;Leicht bewölkt;7;3;0
16.01.2019;18:00:00;29;Leicht bewölkt;6;3;0
16.01.2019;19:00:00;11;Leicht bewölkt;6;3;0
16.01.2019;20:00:00;3;Stellenweiser Regenfall;6;2;0
16.01.2019;21:00:00;3;Stellenweiser Regenfall;6;2;0
16.01.2019;22:00:00;2;Stellenweiser Regenfall;6;2;0
16.01.2019;23:00:00;0;Nieselregen;6;2;0
17.01.2019;00:00:00;0;Nieselregen;6;2;0
17.01.2019;01:00:00;0;Nieselregen;6;2;0
17.01.2019;02:00:00;0;Leichter Regenfall;6;2;0
17.01.2019;03:00:00;0;Leichter Regenfall;6;2;1
17.01.2019;04:00:00;1;Leichter Regenfall;5;2;0
17.01.2019;05:00:00;0;Leichter Regenfall;5;2;0
17.01.2019;06:00:00;8;Leichter Regenfall;5;2;0
17.01.2019;07:00:00;14;Leichter Regenfall;5;2;0
17.01.2019;08:00:00;17;Bewölkt;5;2;0
17.01.2019;09:00:00;8;Bewölkt;5;2;0
17.01.2019;10:00:00;11;Bewölkt;5;2;0
17.01.2019;11:00:00;2;Bedeckt;5;2;0
17.01.2019;12:00:00;2;Bedeckt;6;2;0
17.01.2019;13:00:00;2;Bedeckt;6;2;0
17.01.2019;14:00:00;5;Stellenweise Gewitter und Niederschläge;5;2;0
17.01.2019;15:00:00;8;Stellenweise Gewitter und Niederschläge;5;1;0
17.01.2019;16:00:00;8;Stellenweise Gewitter und Niederschläge;5;1;0
17.01.2019;17:00:00;16;Leichter Eisregen;5;1;0
17.01.2019;18:00:00;9;Leichter Eisregen;4;0;0
17.01.2019;19:00:00;6;Leichter Eisregen;4;0;0
17.01.2019;20:00:00;6;Stellenweiser Eisregen;3;0;0
17.01.2019;21:00:00;0;Stellenweiser Eisregen;3;-1;0
17.01.2019;22:00:00;1;Stellenweiser Eisregen;3;-1;0
17.01.2019;23:00:00;0;Stellenweiser Schneefall;2;-1;0
18.01.2019;00:00:00;0;Stellenweiser Schneefall;2;-2;0
18.01.2019;01:00:00;0;Stellenweiser Schneefall;2;-2;0
18.01.2019;02:00:00;0;Stellenweiser Regenfall;2;-2;0
18.01.2019;03:00:00;0;Stellenweiser Regenfall;2;-2;0
18.01.2019;04:00:00;0;Stellenweiser Regenfall;1;-1;0
18.01.2019;05:00:00;0;Leicht bewölkt;1;-1;0
18.01.2019;06:00:00;7;Leicht bewölkt;1;0;0
18.01.2019;07:00:00;21;Leicht bewölkt;1;0;0
18.01.2019;08:00:00;16;Leicht bewölkt;1;1;0
18.01.2019;09:00:00;15;Leicht bewölkt;1;1;0
18.01.2019;10:00:00;19;Leicht bewölkt;2;1;0
18.01.2019;11:00:00;16;Leicht bewölkt;2;2;0
18.01.2019;12:00:00;21;Leicht bewölkt;3;2;0
18.01.2019;13:00:00;29;Leicht bewölkt;3;2;0
18.01.2019;14:00:00;34;Leicht bewölkt;3;2;0
18.01.2019;15:00:00;35;Leicht bewölkt;4;2;0
18.01.2019;16:00:00;33;Leicht bewölkt;3;2;0
18.01.2019;17:00:00;25;Leicht bewölkt;3;1;0
18.01.2019;18:00:00;7;Leicht bewölkt;2;0;0
18.01.2019;19:00:00;4;Leicht bewölkt;2;0;0
18.01.2019;20:00:00;2;Bewölkt;2;-1;0
18.01.2019;21:00:00;2;Bewölkt;1;-1;0
18.01.2019;22:00:00;0;Bewölkt;1;-2;0
18.01.2019;23:00:00;0;Bewölkt;1;-2;0
19.01.2019;00:00:00;0;Bewölkt;1;-2;0
19.01.2019;01:00:00;0;Bewölkt;0;-3;0
19.01.2019;02:00:00;1;Bewölkt;0;-3;0
19.01.2019;03:00:00;0;Bewölkt;0;-3;0
19.01.2019;04:00:00;0;Bewölkt;0;-3;0
19.01.2019;05:00:00;2;Bewölkt;0;-3;0
19.01.2019;06:00:00;0;Bewölkt;0;-3;0
19.01.2019;07:00:00;0;Bewölkt;0;-3;0
19.01.2019;08:00:00;2;Bewölkt;0;-3;0
19.01.2019;09:00:00;10;Bewölkt;0;-3;0
19.01.2019;10:00:00;20;Bewölkt;1;-3;0
19.01.2019;11:00:00;33;Bewölkt;2;-2;0
19.01.2019;12:00:00;42;Bewölkt;2;-1;0
19.01.2019;13:00:00;64;Bewölkt;2;-1;0
19.01.2019;14:00:00;73;Leicht bewölkt;3;0;0
19.01.2019;15:00:00;49;Leicht bewölkt;3;0;0
19.01.2019;16:00:00;65;Leicht bewölkt;2;-1;0
19.01.2019;17:00:00;21;Leicht bewölkt;2;-1;0
19.01.2019;18:00:00;5;Leicht bewölkt;2;-2;0
19.01.2019;19:00:00;7;Leicht bewölkt;1;-2;0
19.01.2019;20:00:00;0;Leicht bewölkt;1;-3;0
19.01.2019;21:00:00;1;Leicht bewölkt;0;-3;0
19.01.2019;22:00:00;2;Leicht bewölkt;0;-3;0
19.01.2019;23:00:00;1;Leicht bewölkt;0;-3;0
20.01.2019;00:00:00;0;Leicht bewölkt;0;-3;0
20.01.2019;01:00:00;0;Leicht bewölkt;0;-3;0
20.01.2019;02:00:00;0;Leicht bewölkt;0;-4;0
20.01.2019;03:00:00;0;Leicht bewölkt;0;-4;0
20.01.2019;04:00:00;0;Leicht bewölkt;0;-4;0
20.01.2019;05:00:00;1;Leicht bewölkt;-1;-4;0
20.01.2019;06:00:00;0;Leicht bewölkt;-1;-4;0
20.01.2019;07:00:00;1;Leicht bewölkt;0;-3;0
20.01.2019;08:00:00;2;Leicht bewölkt;0;-3;0
20.01.2019;09:00:00;17;Leicht bewölkt;0;-3;0
20.01.2019;10:00:00;30;Leicht bewölkt;1;-2;0
20.01.2019;11:00:00;47;Leicht bewölkt;1;-1;0
20.01.2019;12:00:00;81;Leicht bewölkt;2;0;0
20.01.2019;13:00:00;88;Leicht bewölkt;2;1;0
20.01.2019;14:00:00;100;Leicht bewölkt;3;1;0
20.01.2019;15:00:00;54;Leicht bewölkt;3;2;0
20.01.2019;16:00:00;64;Leicht bewölkt;3;1;0
20.01.2019;17:00:00;14;Leicht bewölkt;2;1;0
20.01.2019;18:00:00;2;Leicht bewölkt;2;0;0
20.01.2019;19:00:00;1;Leicht bewölkt;1;0;0
20.01.2019;20:00:00;0;Leicht bewölkt;1;0;0
20.01.2019;21:00:00;2;Leicht bewölkt;1;-1;0
20.01.2019;22:00:00;1;Leicht bewölkt;1;0;0
20.01.2019;23:00:00;0;Leicht bewölkt;1;0;0
21.01.2019;00:00:00;0;Leicht bewölkt;1;0;0
21.01.2019;01:00:00;0;Leicht bewölkt;1;1;0
21.01.2019;02:00:00;0;Leicht bewölkt;1;1;0
21.01.2019;03:00:00;0;Leicht bewölkt;1;1;0
21.01.2019;04:00:00;0;Leicht bewölkt;0;0;0
21.01.2019;05:00:00;2;Leicht bewölkt;0;0;0
21.01.2019;06:00:00;5;Leicht bewölkt;0;-1;0
21.01.2019;07:00:00;23;Leicht bewölkt;0;-1;0
21.01.2019;08:00:00;21;Leicht bewölkt;0;-1;0
21.01.2019;09:00:00;6;Leicht bewölkt;0;-1;0
21.01.2019;10:00:00;14;Leicht bewölkt;0;-1;0
21.01.2019;11:00:00;12;Leicht bewölkt;1;0;0
21.01.2019;12:00:00;23;Leicht bewölkt;1;0;0
21.01.2019;13:00:00;23;Leicht bewölkt;2;0;0
21.01.2019;14:00:00;19;Leicht bewölkt;2;0;0
21.01.2019;15:00:00;44;Leicht bewölkt;2;1;0
21.01.2019;16:00:00;27;Leicht bewölkt;2;0;0
21.01.2019;17:00:00;11;Leicht bewölkt;1;0;0
21.01.2019;18:00:00;14;Leicht bewölkt;1;-1;0
21.01.2019;19:00:00;1;Leicht bewölkt;0;-1;0
21.01.2019;20:00:00;0;Leicht bewölkt;0;-2;0
21.01.2019;21:00:00;0;Leicht bewölkt;0;-3;0
21.01.2019;22:00:00;0;Leicht bewölkt;-1;-3;0
21.01.2019;23:00:00;0;Leicht bewölkt;-1;-4;0
22.01.2019;00:00:00;1;Leicht bewölkt;-1;-4;0
22.01.2019;01:00:00;1;Leicht bewölkt;-1;-4;0
22.01.2019;02:00:00;1;Leicht bewölkt;-1;-5;0
22.01.2019;03:00:00;0;Leicht bewölkt;-1;-5;0
22.01.2019;04:00:00;0;Leicht bewölkt;-1;-5;0
22.01.2019;05:00:00;1;Leicht bewölkt;-1;-6;0
22.01.2019;06:00:00;4;Leicht bewölkt;-2;-6;0
22.01.2019;07:00:00;14;Leicht bewölkt;-1;-6;0
22.01.2019;08:00:00;9;Leicht bewölkt;-1;-6;0
22.01.2019;09:00:00;7;Leicht bewölkt;-1;-6;0
22.01.2019;10:00:00;14;Leicht bewölkt;-1;-5;0
22.01.2019;11:00:00;21;Leicht bewölkt;0;-5;0
22.01.2019;12:00:00;22;Leicht bewölkt;1;-4;0
22.01.2019;13:00:00;18;Leicht bewölkt;1;-4;0
22.01.2019;14:00:00;19;Leicht bewölkt;1;-3;0
22.01.2019;15:00:00;19;Leicht bewölkt;2;-3;0
22.01.2019;16:00:00;21;Leicht bewölkt;1;-3;0
22.01.2019;17:00:00;16;Leicht bewölkt;1;-3;0
22.01.2019;18:00:00;9;Leicht bewölkt;1;-4;0
22.01.2019;19:00:00;8;Leicht bewölkt;0;-4;0
22.01.2019;20:00:00;4;Bedeckt;0;-4;0
22.01.2019;21:00:00;1;Bedeckt;-1;-5;0
22.01.2019;22:00:00;0;Bedeckt;-1;-5;0
22.01.2019;23:00:00;0;Starker Schneefall;-1;-5;0